Location: Copeville
(33.0796°N, 96.4155°W)
Time: 23:29:48
(UTC+00:00)

NOAA 19 - Pass Details

Date: 01 April 2023
Orbit: 840 x 859 km, 99.1° (Epoch: 28 May)

Event Time Altitude Azimuth Distance (km) Brightness Sun altitude
Exits shadow 03:07:23 20° 209° (SSW) 1,860 6.9 -29.2°
Maximum altitude 03:10:27 35° 261° (W) 1,342 6.6 -29.8°
Drops below altitude 10° 03:15:25 10° 327° (NNW) 2,468 8.3 -30.7°
Sets 03:18:00 0° 336° (NNW) 3,404 9.1 -31.2°
